Year,Month,Day,Hour,Minute,Value (Times are PST for temperature in C)
2016,03,22,00,00,8.20
2016,03,22,00,01,8.20
2016,03,22,00,02,8.20
2016,03,22,00,03,8.20
2016,03,22,00,04,8.20
2016,03,22,00,05,8.20
2016,03,22,00,06,8.20
2016,03,22,00,07,8.20
2016,03,22,00,08,8.10
2016,03,22,00,09,8.10
2016,03,22,00,10,8.10
2016,03,22,00,11,8.10
2016,03,22,00,12,8.10
2016,03,22,00,13,8.10
2016,03,22,00,14,8.00
2016,03,22,00,15,8.00
2016,03,22,00,16,8.00
2016,03,22,00,17,8.00
2016,03,22,00,18,7.90
2016,03,22,00,19,7.90
2016,03,22,00,20,7.90
2016,03,22,00,21,7.90
2016,03,22,00,22,7.90
2016,03,22,00,23,7.90
2016,03,22,00,24,7.90
2016,03,22,00,25,7.80
2016,03,22,00,26,7.80
2016,03,22,00,27,7.80
2016,03,22,00,28,7.80
2016,03,22,00,29,7.80
2016,03,22,00,30,7.80
2016,03,22,00,31,7.80
2016,03,22,00,32,7.80
2016,03,22,00,33,7.80
2016,03,22,00,34,7.80
2016,03,22,00,35,7.80
2016,03,22,00,36,7.80
2016,03,22,00,37,7.80
2016,03,22,00,38,7.80
2016,03,22,00,39,7.80
2016,03,22,00,40,7.80
2016,03,22,00,41,7.80
2016,03,22,00,42,7.80
2016,03,22,00,43,7.80
2016,03,22,00,44,7.80
2016,03,22,00,45,7.90
2016,03,22,00,46,7.90
2016,03,22,00,47,7.90
2016,03,22,00,48,7.90
2016,03,22,00,49,7.90
2016,03,22,00,50,7.90
2016,03,22,00,51,7.90
2016,03,22,00,52,7.90
2016,03,22,00,53,7.80
2016,03,22,00,54,7.80
2016,03,22,00,55,7.80
2016,03,22,00,56,7.80
2016,03,22,00,57,7.80
2016,03,22,00,58,7.80
2016,03,22,00,59,7.80
2016,03,22,01,00,7.80
2016,03,22,01,01,7.80
2016,03,22,01,02,7.80
2016,03,22,01,03,7.80
2016,03,22,01,04,7.80
2016,03,22,01,05,7.80
2016,03,22,01,06,7.80
2016,03,22,01,07,7.80
2016,03,22,01,08,7.70
2016,03,22,01,09,7.70
2016,03,22,01,10,7.70
2016,03,22,01,11,7.70
2016,03,22,01,12,7.70
2016,03,22,01,13,7.70
2016,03,22,01,14,7.70
2016,03,22,01,15,7.70
2016,03,22,01,16,7.70
2016,03,22,01,17,7.60
2016,03,22,01,18,7.60
2016,03,22,01,19,7.60
2016,03,22,01,20,7.60
2016,03,22,01,21,7.60
2016,03,22,01,22,7.60
2016,03,22,01,23,7.60
2016,03,22,01,24,7.60
2016,03,22,01,25,7.60
2016,03,22,01,26,7.60
2016,03,22,01,27,7.60
2016,03,22,01,28,7.60
2016,03,22,01,29,7.60
2016,03,22,01,30,7.60
2016,03,22,01,31,7.50
2016,03,22,01,32,7.50
2016,03,22,01,33,7.50
2016,03,22,01,34,7.50
2016,03,22,01,35,7.50
2016,03,22,01,36,7.40
2016,03,22,01,37,7.40
2016,03,22,01,38,7.40
2016,03,22,01,39,7.40
2016,03,22,01,40,7.40
2016,03,22,01,41,7.40
2016,03,22,01,42,7.40
2016,03,22,01,43,7.40
2016,03,22,01,44,7.40
2016,03,22,01,45,7.40
2016,03,22,01,46,7.40
2016,03,22,01,47,7.30
2016,03,22,01,48,7.30
2016,03,22,01,49,7.30
2016,03,22,01,50,7.30
2016,03,22,01,51,7.30
2016,03,22,01,52,7.30
2016,03,22,01,53,7.30
2016,03,22,01,54,7.20
2016,03,22,01,55,7.20
2016,03,22,01,56,7.20
2016,03,22,01,57,7.20
2016,03,22,01,58,7.20
2016,03,22,01,59,7.20
2016,03,22,02,00,7.20
2016,03,22,02,01,7.20
2016,03,22,02,02,7.20
2016,03,22,02,03,7.20
2016,03,22,02,04,7.20
2016,03,22,02,05,7.20
2016,03,22,02,06,7.20
2016,03,22,02,07,7.20
2016,03,22,02,08,7.20
2016,03,22,02,09,7.20
2016,03,22,02,10,7.20
2016,03,22,02,11,7.20
2016,03,22,02,12,7.20
2016,03,22,02,13,7.20
2016,03,22,02,14,7.20
2016,03,22,02,15,7.20
2016,03,22,02,16,7.20
2016,03,22,02,17,7.20
2016,03,22,02,18,7.20
2016,03,22,02,19,7.30
2016,03,22,02,20,7.30
2016,03,22,02,21,7.30
2016,03,22,02,22,7.30
2016,03,22,02,23,7.30
2016,03,22,02,24,7.30
2016,03,22,02,25,7.30
2016,03,22,02,26,7.30
2016,03,22,02,27,7.30
2016,03,22,02,28,7.30
2016,03,22,02,29,7.30
2016,03,22,02,30,7.30
2016,03,22,02,31,7.30
2016,03,22,02,32,7.30
2016,03,22,02,33,7.30
2016,03,22,02,34,7.30
2016,03,22,02,35,7.30
2016,03,22,02,36,7.30
2016,03,22,02,37,7.30
2016,03,22,02,38,7.30
2016,03,22,02,39,7.30
2016,03,22,02,40,7.30
2016,03,22,02,41,7.30
2016,03,22,02,42,7.30
2016,03,22,02,43,7.30
2016,03,22,02,44,7.20
2016,03,22,02,45,7.20
2016,03,22,02,46,7.20
2016,03,22,02,47,7.20
2016,03,22,02,48,7.20
2016,03,22,02,49,7.20
2016,03,22,02,50,7.10
2016,03,22,02,51,7.10
2016,03,22,02,52,7.10
2016,03,22,02,53,7.10
2016,03,22,02,54,7.10
2016,03,22,02,55,7.10
2016,03,22,02,56,7.00
2016,03,22,02,57,7.00
2016,03,22,02,58,7.00
2016,03,22,02,59,7.00
2016,03,22,03,00,7.00
2016,03,22,03,01,7.00
2016,03,22,03,02,7.00
2016,03,22,03,03,6.90
2016,03,22,03,04,6.90
2016,03,22,03,05,6.90
2016,03,22,03,06,6.90
2016,03,22,03,07,6.90
2016,03,22,03,08,6.90
2016,03,22,03,09,6.90
2016,03,22,03,10,6.90
2016,03,22,03,11,6.90
2016,03,22,03,12,6.90
2016,03,22,03,13,6.90
2016,03,22,03,14,6.90
2016,03,22,03,15,6.80
2016,03,22,03,16,6.90
2016,03,22,03,17,6.90
2016,03,22,03,18,6.90
2016,03,22,03,19,6.80
2016,03,22,03,20,6.80
2016,03,22,03,21,6.80
2016,03,22,03,22,6.80
2016,03,22,03,23,6.80
2016,03,22,03,24,6.80
2016,03,22,03,25,6.90
2016,03,22,03,26,6.90
2016,03,22,03,27,6.90
2016,03,22,03,28,6.90
2016,03,22,03,29,6.90
2016,03,22,03,30,6.90
2016,03,22,03,31,7.00
2016,03,22,03,32,7.00
2016,03,22,03,33,7.00
2016,03,22,03,34,7.00
2016,03,22,03,35,7.00
2016,03,22,03,36,7.00
2016,03,22,03,37,6.90
2016,03,22,03,38,6.90
2016,03,22,03,39,6.90
2016,03,22,03,40,6.90
2016,03,22,03,41,6.90
2016,03,22,03,42,6.80
2016,03,22,03,43,6.80
2016,03,22,03,44,6.80
2016,03,22,03,45,6.80
2016,03,22,03,46,6.80
2016,03,22,03,47,6.80
2016,03,22,03,48,6.80
2016,03,22,03,49,6.80
2016,03,22,03,50,6.80
2016,03,22,03,51,6.80
2016,03,22,03,52,6.80
2016,03,22,03,53,6.80
2016,03,22,03,54,6.80
2016,03,22,03,55,6.80
2016,03,22,03,56,6.80
2016,03,22,03,57,6.80
2016,03,22,03,58,6.80
2016,03,22,03,59,6.80
2016,03,22,04,00,6.80
2016,03,22,04,01,6.80
2016,03,22,04,02,6.80
2016,03,22,04,03,6.80
2016,03,22,04,04,6.80
2016,03,22,04,05,6.80
2016,03,22,04,06,6.80
2016,03,22,04,07,6.80
2016,03,22,04,08,6.80
2016,03,22,04,09,6.80
2016,03,22,04,10,6.80
2016,03,22,04,11,6.80
2016,03,22,04,12,6.80
2016,03,22,04,13,6.80
2016,03,22,04,14,6.80
2016,03,22,04,15,6.80
2016,03,22,04,16,6.80
2016,03,22,04,17,6.80
2016,03,22,04,18,6.80
2016,03,22,04,19,6.80
2016,03,22,04,20,6.80
2016,03,22,04,21,6.80
2016,03,22,04,22,6.80
2016,03,22,04,23,6.80
2016,03,22,04,24,6.70
2016,03,22,04,25,6.70
2016,03,22,04,26,6.70
2016,03,22,04,27,6.70
2016,03,22,04,28,6.70
2016,03,22,04,29,6.70
2016,03,22,04,30,6.70
2016,03,22,04,31,6.70
2016,03,22,04,32,6.70
2016,03,22,04,33,6.80
2016,03,22,04,34,6.80
2016,03,22,04,35,6.80
2016,03,22,04,36,6.80
2016,03,22,04,37,6.80
2016,03,22,04,38,6.80
2016,03,22,04,39,6.80
2016,03,22,04,40,6.80
2016,03,22,04,41,6.80
2016,03,22,04,42,6.80
2016,03,22,04,43,6.80
2016,03,22,04,44,6.80
2016,03,22,04,45,6.80
2016,03,22,04,46,6.80
2016,03,22,04,47,6.80
2016,03,22,04,48,6.80
2016,03,22,04,49,6.80
2016,03,22,04,50,6.70
2016,03,22,04,51,6.70
2016,03,22,04,52,6.70
2016,03,22,04,53,6.70
2016,03,22,04,54,6.70
2016,03,22,04,55,6.70
2016,03,22,04,56,6.60
2016,03,22,04,57,6.60
2016,03,22,04,58,6.60
2016,03,22,04,59,6.50
2016,03,22,05,00,6.50
2016,03,22,05,01,6.50
2016,03,22,05,02,6.50
2016,03,22,05,03,6.40
2016,03,22,05,04,6.40
2016,03,22,05,05,6.40
2016,03,22,05,06,6.30
2016,03,22,05,07,6.30
2016,03,22,05,08,6.30
2016,03,22,05,09,6.30
2016,03,22,05,10,6.20
2016,03,22,05,11,6.20
2016,03,22,05,12,6.20
2016,03,22,05,13,6.20
2016,03,22,05,14,6.20
2016,03,22,05,15,6.20
2016,03,22,05,16,6.20
2016,03,22,05,17,6.10
2016,03,22,05,18,6.10
2016,03,22,05,19,6.10
2016,03,22,05,20,6.10
2016,03,22,05,21,6.20
2016,03,22,05,22,6.20
2016,03,22,05,23,6.30
2016,03,22,05,24,6.30
2016,03,22,05,25,6.40
2016,03,22,05,26,6.50
2016,03,22,05,27,6.50
2016,03,22,05,28,6.60
2016,03,22,05,29,6.60
2016,03,22,05,30,6.70
2016,03,22,05,31,6.70
2016,03,22,05,32,6.70
2016,03,22,05,33,6.70
2016,03,22,05,34,6.70
2016,03,22,05,35,6.80
2016,03,22,05,36,6.80
2016,03,22,05,37,6.80
2016,03,22,05,38,6.80
2016,03,22,05,39,6.80
2016,03,22,05,40,6.80
2016,03,22,05,41,6.80
2016,03,22,05,42,6.80
2016,03,22,05,43,6.80
2016,03,22,05,44,6.90
2016,03,22,05,45,6.90
2016,03,22,05,46,6.90
2016,03,22,05,47,6.90
2016,03,22,05,48,6.90
2016,03,22,05,49,6.90
2016,03,22,05,50,6.90
2016,03,22,05,51,6.90
2016,03,22,05,52,7.00
2016,03,22,05,53,7.00
2016,03,22,05,54,7.00
2016,03,22,05,55,7.00
2016,03,22,05,56,6.90
2016,03,22,05,57,6.90
2016,03,22,05,58,6.90
2016,03,22,05,59,6.90
2016,03,22,06,00,6.90
2016,03,22,06,01,6.90
2016,03,22,06,02,6.90
2016,03,22,06,03,6.90
2016,03,22,06,04,6.90
2016,03,22,06,05,7.00
2016,03,22,06,06,7.00
2016,03,22,06,07,7.00
2016,03,22,06,08,6.90
2016,03,22,06,09,6.90
2016,03,22,06,10,6.90
2016,03,22,06,11,6.90
2016,03,22,06,12,6.90
2016,03,22,06,13,6.80
2016,03,22,06,14,6.80
2016,03,22,06,15,6.80
2016,03,22,06,16,6.80
2016,03,22,06,17,6.80
2016,03,22,06,18,6.80
2016,03,22,06,19,6.80
2016,03,22,06,20,6.80
2016,03,22,06,21,6.80
2016,03,22,06,22,6.80
2016,03,22,06,23,6.80
2016,03,22,06,24,6.80
2016,03,22,06,25,6.80
2016,03,22,06,26,6.90
2016,03,22,06,27,6.90
2016,03,22,06,28,6.90
2016,03,22,06,29,6.90
2016,03,22,06,30,6.90
2016,03,22,06,31,6.90
2016,03,22,06,32,6.90
2016,03,22,06,33,6.90
2016,03,22,06,34,6.90
2016,03,22,06,35,6.90
2016,03,22,06,36,6.90
2016,03,22,06,37,6.90
2016,03,22,06,38,6.90
2016,03,22,06,39,6.90
2016,03,22,06,40,6.90
2016,03,22,06,41,6.90
2016,03,22,06,42,6.90
2016,03,22,06,43,6.90
2016,03,22,06,44,6.90
2016,03,22,06,45,6.90
2016,03,22,06,46,6.90
2016,03,22,06,47,6.90
2016,03,22,06,48,6.90
2016,03,22,06,49,6.80
2016,03,22,06,50,6.80
2016,03,22,06,51,6.80
2016,03,22,06,52,6.70
2016,03,22,06,53,6.70
2016,03,22,06,54,6.70
2016,03,22,06,55,6.80
2016,03,22,06,56,6.80
2016,03,22,06,57,6.80
2016,03,22,06,58,6.90
2016,03,22,06,59,6.90
2016,03,22,07,00,7.00
2016,03,22,07,01,7.00
2016,03,22,07,02,7.10
2016,03,22,07,03,7.10
2016,03,22,07,04,7.10
2016,03,22,07,05,7.10
2016,03,22,07,06,7.20
2016,03,22,07,07,7.30
2016,03,22,07,08,7.40
2016,03,22,07,09,7.50
2016,03,22,07,10,7.50
2016,03,22,07,11,7.40
2016,03,22,07,12,7.40
2016,03,22,07,13,7.30
2016,03,22,07,14,7.20
2016,03,22,07,15,7.10
2016,03,22,07,16,7.10
2016,03,22,07,17,7.00
2016,03,22,07,18,7.00
2016,03,22,07,19,6.90
2016,03,22,07,20,6.90
2016,03,22,07,21,6.90
2016,03,22,07,22,6.80
2016,03,22,07,23,6.80
2016,03,22,07,24,6.80
2016,03,22,07,25,6.80
2016,03,22,07,26,6.80
2016,03,22,07,27,6.80
2016,03,22,07,28,6.80
2016,03,22,07,29,6.70
2016,03,22,07,30,6.70
2016,03,22,07,31,6.70
2016,03,22,07,32,6.70
2016,03,22,07,33,6.70
2016,03,22,07,34,6.70
2016,03,22,07,35,6.70
2016,03,22,07,36,6.70
2016,03,22,07,37,6.70
2016,03,22,07,38,6.70
2016,03,22,07,39,6.70
2016,03,22,07,40,6.70
2016,03,22,07,41,6.60
2016,03,22,07,42,6.60
2016,03,22,07,43,6.60
2016,03,22,07,44,6.60
2016,03,22,07,45,6.60
2016,03,22,07,46,6.60
2016,03,22,07,47,6.60
2016,03,22,07,48,6.60
2016,03,22,07,49,6.60
2016,03,22,07,50,6.60
2016,03,22,07,51,6.50
2016,03,22,07,52,6.50
2016,03,22,07,53,6.50
2016,03,22,07,54,6.50
2016,03,22,07,55,6.50
2016,03,22,07,56,6.50
2016,03,22,07,57,6.50
2016,03,22,07,58,6.50
2016,03,22,07,59,6.50
2016,03,22,08,00,6.60
2016,03,22,08,01,6.60
2016,03,22,08,02,6.60
2016,03,22,08,03,6.60
2016,03,22,08,04,6.60
2016,03,22,08,05,6.60
2016,03,22,08,06,6.60
2016,03,22,08,07,6.60
2016,03,22,08,08,6.60
2016,03,22,08,09,6.70
2016,03,22,08,10,6.70
2016,03,22,08,11,6.70
2016,03,22,08,12,6.70
2016,03,22,08,13,6.70
2016,03,22,08,14,6.70
2016,03,22,08,15,6.70
2016,03,22,08,16,6.70
2016,03,22,08,17,6.70
2016,03,22,08,18,6.70
2016,03,22,08,19,6.70
2016,03,22,08,20,6.70
2016,03,22,08,21,6.70
2016,03,22,08,22,6.70
2016,03,22,08,23,6.80
2016,03,22,08,24,6.80
2016,03,22,08,25,6.80
2016,03,22,08,26,6.80
2016,03,22,08,27,6.90
2016,03,22,08,28,6.90
2016,03,22,08,29,6.90
2016,03,22,08,30,7.00
2016,03,22,08,31,7.00
2016,03,22,08,32,7.10
2016,03,22,08,33,7.20
2016,03,22,08,34,7.20
2016,03,22,08,35,7.30
2016,03,22,08,36,7.40
2016,03,22,08,37,7.50
2016,03,22,08,38,7.60
2016,03,22,08,39,7.70
2016,03,22,08,40,7.80
2016,03,22,08,41,7.90
2016,03,22,08,42,8.00
2016,03,22,08,43,8.10
2016,03,22,08,44,8.20
2016,03,22,08,45,8.20
2016,03,22,08,46,8.30
2016,03,22,08,47,8.40
2016,03,22,08,48,8.40
2016,03,22,08,49,8.50
2016,03,22,08,50,8.50
2016,03,22,08,51,8.60
2016,03,22,08,52,8.60
2016,03,22,08,53,8.70
2016,03,22,08,54,8.80
2016,03,22,08,55,8.80
2016,03,22,08,56,8.90
2016,03,22,08,57,8.90
2016,03,22,08,58,8.90
2016,03,22,08,59,8.90
2016,03,22,09,00,8.90
2016,03,22,09,01,8.90
2016,03,22,09,02,8.90
2016,03,22,09,03,9.00
2016,03,22,09,04,9.00
2016,03,22,09,05,9.00
2016,03,22,09,06,9.10
2016,03,22,09,07,9.10
2016,03,22,09,08,9.20
2016,03,22,09,09,9.20
2016,03,22,09,10,9.30
2016,03,22,09,11,9.30
2016,03,22,09,12,9.40
2016,03,22,09,13,9.50
2016,03,22,09,14,9.60
2016,03,22,09,15,9.70
2016,03,22,09,16,9.80
2016,03,22,09,17,9.90
2016,03,22,09,18,10.10
2016,03,22,09,19,10.20
2016,03,22,09,20,10.30
2016,03,22,09,21,10.40
2016,03,22,09,22,10.50
2016,03,22,09,23,10.60
2016,03,22,09,24,10.60
2016,03,22,09,25,10.60
2016,03,22,09,26,10.60
2016,03,22,09,27,10.60
2016,03,22,09,28,10.60
2016,03,22,09,29,10.70
2016,03,22,09,30,10.70
2016,03,22,09,31,10.90
2016,03,22,09,32,11.00
2016,03,22,09,33,11.00
2016,03,22,09,34,11.00
2016,03,22,09,35,11.00
2016,03,22,09,36,11.00
2016,03,22,09,37,11.00
2016,03,22,09,38,11.00
2016,03,22,09,39,10.90
2016,03,22,09,40,10.90
2016,03,22,09,41,10.90
2016,03,22,09,42,11.00
2016,03,22,09,43,11.00
2016,03,22,09,44,11.10
2016,03,22,09,45,11.20
2016,03,22,09,46,11.30
2016,03,22,09,47,11.40
2016,03,22,09,48,11.40
2016,03,22,09,49,11.40
2016,03,22,09,50,11.50
2016,03,22,09,51,11.50
2016,03,22,09,52,11.60
2016,03,22,09,53,11.60
2016,03,22,09,54,11.60
2016,03,22,09,55,11.50
2016,03,22,09,56,11.40
2016,03,22,09,57,11.40
2016,03,22,09,58,11.30
2016,03,22,09,59,11.30
2016,03,22,10,00,11.30
2016,03,22,10,01,11.30
2016,03,22,10,02,11.20
2016,03,22,10,03,11.30
2016,03,22,10,04,11.30
2016,03,22,10,05,11.30
2016,03,22,10,06,11.30
2016,03,22,10,07,11.30
2016,03,22,10,08,11.30
2016,03,22,10,09,11.30
2016,03,22,10,10,11.40
2016,03,22,10,11,11.50
2016,03,22,10,12,11.50
2016,03,22,10,13,11.50
2016,03,22,10,14,11.40
2016,03,22,10,15,11.40
2016,03,22,10,16,11.30
2016,03,22,10,17,11.30
2016,03,22,10,18,11.30
2016,03,22,10,19,11.40
2016,03,22,10,20,11.50
2016,03,22,10,21,11.60
2016,03,22,10,22,11.60
2016,03,22,10,23,11.60
2016,03,22,10,24,11.60
2016,03,22,10,25,11.60
2016,03,22,10,26,11.60
2016,03,22,10,27,11.60
2016,03,22,10,28,11.60
2016,03,22,10,29,11.70
2016,03,22,10,30,11.80
2016,03,22,10,31,11.90
2016,03,22,10,32,12.00
2016,03,22,10,33,12.00
2016,03,22,10,34,12.00
2016,03,22,10,35,11.90
2016,03,22,10,36,11.80
2016,03,22,10,37,11.80
2016,03,22,10,38,11.70
2016,03,22,10,39,11.70
2016,03,22,10,40,11.70
2016,03,22,10,41,11.70
2016,03,22,10,42,11.70
2016,03,22,10,43,11.70
2016,03,22,10,44,11.70
2016,03,22,10,45,11.70
2016,03,22,10,46,11.80
2016,03,22,10,47,11.70
2016,03,22,10,48,11.70
2016,03,22,10,49,11.70
2016,03,22,10,50,11.70
2016,03,22,10,51,11.80
2016,03,22,10,52,11.80
2016,03,22,10,53,11.80
2016,03,22,10,54,11.90
2016,03,22,10,55,11.90
2016,03,22,10,56,12.00
2016,03,22,10,57,12.10
2016,03,22,10,58,12.10
2016,03,22,10,59,12.10
2016,03,22,11,00,12.10
2016,03,22,11,01,12.10
2016,03,22,11,02,12.10
2016,03,22,11,03,12.10
2016,03,22,11,04,12.20
2016,03,22,11,05,12.20
2016,03,22,11,06,12.20
2016,03,22,11,07,12.20
2016,03,22,11,08,12.20
2016,03,22,11,09,12.10
2016,03,22,11,10,12.00
2016,03,22,11,11,12.00
2016,03,22,11,12,12.10
2016,03,22,11,13,12.00
2016,03,22,11,14,12.00
2016,03,22,11,15,12.00
2016,03,22,11,16,12.00
2016,03,22,11,17,12.00
2016,03,22,11,18,12.00
2016,03,22,11,19,12.00
2016,03,22,11,20,12.00
2016,03,22,11,21,12.10
2016,03,22,11,22,12.10
2016,03,22,11,23,12.20
2016,03,22,11,24,12.20
2016,03,22,11,25,12.30
2016,03,22,11,26,12.30
2016,03,22,11,27,12.40
2016,03,22,11,28,12.40
2016,03,22,11,29,12.50
2016,03,22,11,30,12.60
2016,03,22,11,31,12.60
2016,03,22,11,32,12.70
2016,03,22,11,33,12.70
2016,03,22,11,34,12.70
2016,03,22,11,35,12.80
2016,03,22,11,36,12.80
2016,03,22,11,37,12.80
2016,03,22,11,38,12.80
2016,03,22,11,39,12.80
2016,03,22,11,40,12.90
2016,03,22,11,41,13.00
2016,03,22,11,42,13.00
2016,03,22,11,43,13.00
2016,03,22,11,44,12.90
2016,03,22,11,45,12.80
2016,03,22,11,46,12.90
2016,03,22,11,47,13.00
2016,03,22,11,48,13.20
2016,03,22,11,49,13.40
2016,03,22,11,50,13.50
2016,03,22,11,51,13.60
2016,03,22,11,52,13.50
2016,03,22,11,53,13.50
2016,03,22,11,54,13.40
2016,03,22,11,55,13.30
2016,03,22,11,56,13.40
2016,03,22,11,57,13.50
2016,03,22,11,58,13.60
2016,03,22,11,59,13.60
2016,03,22,12,00,13.60
2016,03,22,12,01,13.70
2016,03,22,12,02,13.70
2016,03,22,12,03,13.70
2016,03,22,12,04,13.60
2016,03,22,12,05,13.60
2016,03,22,12,06,13.50
2016,03,22,12,07,13.40
2016,03,22,12,08,13.40
2016,03,22,12,09,13.40
2016,03,22,12,10,13.40
2016,03,22,12,11,13.40
2016,03,22,12,12,13.40
2016,03,22,12,13,13.30
2016,03,22,12,14,13.30
2016,03,22,12,15,13.30
2016,03,22,12,16,13.30
2016,03,22,12,17,13.30
2016,03,22,12,18,13.30
2016,03,22,12,19,13.20
2016,03,22,12,20,13.20
2016,03,22,12,21,13.20
2016,03,22,12,22,13.00
2016,03,22,12,23,12.90
2016,03,22,12,24,12.90
2016,03,22,12,25,12.80
2016,03,22,12,26,12.90
2016,03,22,12,27,13.00
2016,03,22,12,28,13.00
2016,03,22,12,29,13.00
2016,03,22,12,30,13.00
2016,03,22,12,31,13.00
2016,03,22,12,32,13.00
2016,03,22,12,33,13.00
2016,03,22,12,34,12.90
2016,03,22,12,35,12.90
2016,03,22,12,36,12.90
2016,03,22,12,37,12.90
2016,03,22,12,38,12.90
2016,03,22,12,39,12.80
2016,03,22,12,40,12.80
2016,03,22,12,41,12.90
2016,03,22,12,42,12.90
2016,03,22,12,43,12.90
2016,03,22,12,44,13.00
2016,03,22,12,45,13.00
2016,03,22,12,46,13.10
2016,03,22,12,47,13.20
2016,03,22,12,48,13.20
2016,03,22,12,49,13.20
2016,03,22,12,50,13.20
2016,03,22,12,51,13.20
2016,03,22,12,52,13.30
2016,03,22,12,53,13.40
2016,03,22,12,54,13.50
2016,03,22,12,55,13.60
2016,03,22,12,56,13.60
2016,03,22,12,57,13.60
2016,03,22,12,58,13.50
2016,03,22,12,59,13.50
2016,03,22,13,00,13.40
2016,03,22,13,01,13.40
2016,03,22,13,02,13.40
2016,03,22,13,03,13.40
2016,03,22,13,04,13.40
2016,03,22,13,05,13.50
2016,03,22,13,06,13.50
2016,03,22,13,07,13.50
2016,03,22,13,08,13.50
2016,03,22,13,09,13.50
2016,03,22,13,10,13.50
2016,03,22,13,11,13.50
2016,03,22,13,12,13.50
2016,03,22,13,13,13.50
2016,03,22,13,14,13.40
2016,03,22,13,15,13.30
2016,03,22,13,16,13.30
2016,03,22,13,17,13.20
2016,03,22,13,18,13.30
2016,03,22,13,19,13.30
2016,03,22,13,20,13.30
2016,03,22,13,21,13.30
2016,03,22,13,22,13.30
2016,03,22,13,23,13.30
2016,03,22,13,24,13.30
2016,03,22,13,25,13.30
2016,03,22,13,26,13.20
2016,03,22,13,27,13.20
2016,03,22,13,28,13.30
2016,03,22,13,29,13.40
2016,03,22,13,30,13.40
2016,03,22,13,31,13.50
2016,03,22,13,32,13.50
2016,03,22,13,33,13.50
2016,03,22,13,34,13.60
2016,03,22,13,35,13.60
2016,03,22,13,36,13.70
2016,03,22,13,37,13.70
2016,03,22,13,38,13.70
2016,03,22,13,39,13.60
2016,03,22,13,40,13.50
2016,03,22,13,41,13.40
2016,03,22,13,42,13.40
2016,03,22,13,43,13.30
2016,03,22,13,44,13.30
2016,03,22,13,45,13.20
2016,03,22,13,46,13.20
2016,03,22,13,47,13.20
